Location: Dallas
(32.7833°N, 96.8000°W)
Time: 11:33:21
(UTC-05:00)

ISS - Visible Passes

Search period start: 05 October 2022 00:00
Search period end: 15 October 2022 00:00
Orbit: 415 x 419 km, 51.6° (Epoch: 05 October)

Date Brightness Start Highest point End Pass type
(mag) Time Alt. Az. Time Alt. Az. Time Alt. Az.
05 Oct -3.2 19:44:41 10° NNW 19:47:55 41° NE 19:50:35 14° ESE visible
05 Oct -0.6 21:22:38 10° W 21:23:33 13° WSW 21:23:33 13° WSW visible
06 Oct -1.7 20:33:28 10° WNW 20:36:18 25° SW 20:38:03 17° S visible
07 Oct -2.9 19:44:52 10° NW 19:48:08 51° SW 19:51:24 10° SSE visible
09 Oct -0.7 19:46:00 10° W 19:47:55 14° SW 19:49:49 10° SSW visible
